Preview of NWS' New Version of Forecast
This preview is not operational and should not be used for support decisions.

Regional Weather Roundup (RWR)

Issued by National Weather Service (NWS)

                            
000
ASUS44 KJAN 161210
RWRMS 

MISSISSIPPI HOURLY WEATHER ROUNDUP
NATIONAL WEATHER SERVICE JACKSON MS
700 AM CDT MON SEP 16 2019

NOTE: "FAIR: INDICATES FEW OR NO CLOUDS BELOW 12,000 FEET WITH NO
SIGNIFICANT WEATHER AND/OR OBSTRUCTIONS TO VISIBILITY.

MSZ001>002-007>008-010>013-018>021-025>028-034>036-161300-
NORTHWEST MISSISSIPPI
  
CITY           SKY/WX    TMP DP  RH WIND       PRES   REMARKS
BATESVILLE     CLOUDY    70  70 100 CALM      30.09R                  
CLARKSDALE       N/A     70  70 100 CALM      30.09R                  
CLEVELAND      FAIR      71  71 100 NE5       30.08R                  
GREENWOOD      FAIR      72  68  87 CALM      30.07R                  
6HR MIN TEMP:  72; 6HR MAX TEMP:  75;                                

GREENVILLE     FAIR      72  68  87 N3        30.07R                  
6HR MIN TEMP:  70; 6HR MAX TEMP:  74;                                

OLIVE BRANCH   CLEAR     72  70  94 CALM      30.11R                  
OXFORD         FAIR      68  66  94 CALM      30.12R                  
TUNICA           N/A     68  66  94 CALM      30.10R                  
WINONA         FAIR      70  70 100 CALM      30.09R                  
$$

MSZ003>006-009-014>017-022>024-029>033-037>039-161300-
NORTHEAST MISSISSIPPI
  
CITY           SKY/WX    TMP DP  RH WIND       PRES   REMARKS
ABERDEEN       HAZE      66  48  52 CALM      30.10R VSB 1/4          
COLUMBUS AFB   FAIR      71  69  96 CALM      30.08R                  
6HR MIN TEMP:  69; 6HR MAX TEMP:  75; 6HR PCP: TRACE;                

CORINTH        FOG       66  66 100 CALM      30.11R VSB<1/4          
GOLDN TRIANGLE FAIR      71  71 100 N3        30.09R                  
STARKVILLE       N/A     66  66 100 CALM      30.10R                  
TUPELO         FAIR      72  68  87 N5        30.10R FOG              
6HR MIN TEMP:  72; 6HR MAX TEMP:  77;                                

$$

MSZ040-058-161300-
CENTRAL MISSISSIPPI
  
CITY           SKY/WX    TMP DP  RH WIND       PRES   REMARKS
JACKSON INTL   FAIR      72  68  87 CALM      30.06R                  
6HR MIN TEMP:  71; 6HR MAX TEMP:  75;                                

JACKSON HAWKNS FAIR      74  70  87 CALM      30.06R                  
6HR MIN TEMP:  73; 6HR MAX TEMP:  77;                                

MADISON          N/A     70  70 100 CALM      30.08R                  
MERIDIAN KEY   FAIR      72  69  90 N3        30.07R                  
6HR MIN TEMP:  71; 6HR MAX TEMP:  75;                                

MERIDIAN NAS   FAIR      70  68  93 CALM      30.07S                  
6HR MIN TEMP:  69; 6HR MAX TEMP:  74;                                

RAYMOND        FOG       68  68 100 CALM      30.06R VSB 1            
VICKSBURG VKS  SUNNY     70  70 100 CALM      30.05S                  
$$

MSZ059>079-161300-
SOUTH MISSISSIPPI
  
CITY           SKY/WX    TMP DP  RH WIND       PRES   REMARKS
BROOKHAVEN     FAIR      70  70 100 CALM      30.07S                  
HATTIESBURG    FAIR      69  68  96 CALM      30.05R                  
6HR MIN TEMP:  69; 6HR MAX TEMP:  74;                                

LAUREL         SUNNY     71  69  94 CALM      30.06R                  
MCCOMB         FAIR      74  69  85 N5        30.04R                  
6HR MIN TEMP:  72; 6HR MAX TEMP:  75;                                

NATCHEZ        FAIR      68  67  96 CALM      30.05S FOG              
6HR MIN TEMP:  68; 6HR MAX TEMP:  73;                                

PINE BELT      FAIR      71  69  93 N5        30.06R                  
6HR MIN TEMP:  70; 6HR MAX TEMP:  74;                                

$$

MSZ080>082-161300-
COASTAL MISSISSIPPI
  
CITY           SKY/WX    TMP DP  RH WIND       PRES   REMARKS
BAY ST LOUIS   CLEAR     77  72  83 NE7       29.99                   
BILOXI         MOCLDY    76  71  86 NE7       30.00S                  
6HR MIN TEMP:  76; 6HR MAX TEMP:  79;                                

PASCAGOULA     FAIR      75  70  84 NE5       30.01S                  
6HR MIN TEMP:  72; 6HR MAX TEMP:  75;                                

GULFPORT       FAIR      76  70  82 NE6       29.99S                  
6HR MIN TEMP:  75; 6HR MAX TEMP:  78;                                

$$

LAZ007>009-015>016-023>026-161300-
NORTHEAST LOUISIANA
  
CITY           SKY/WX    TMP DP  RH WIND       PRES   REMARKS
BASTROP        FAIR      70  69  98 CALM      30.07R                  
TALLULAH/VBURG FAIR      72  68  87 CALM      30.05R FOG              
6HR MIN TEMP:  71; 6HR MAX TEMP:  77;                                

VIDALIA        FAIR     N/A N/A N/A CALM      30.03S                  
$$